Location: Heathcote
(40.9845°N, 73.7746°W)
Time: 13:42:00
(UTC+00:00)

Cosmos 1408 - Pass Details

Date: 29 October 2020
Orbit: 470 x 492 km, 82.6° (Epoch: 01 December)

Event Time Altitude Azimuth Distance (km) Brightness Sun altitude
Rises 22:56:29 0° 0° (N) 2,558 6.1 -12.3°
Reaches altitude 10° 22:58:42 10° 10° (N) 1,677 5.1 -12.7°
Maximum altitude 23:02:07 36° 78° (ENE) 787 3.1 -13.4°
Drops below altitude 10° 23:05:32 10° 147° (SSE) 1,675 5.0 -14.0°
Sets 23:07:45 0° 156° (SSE) 2,554 6.0 -14.4°
